{"data":{"norad_id":40298,"intl_designator":"2014-070A","name":"ASNARO","alt_names":[],"object_type":"PAYLOAD","status":"ACTIVE","operator":null,"country":"JPN","launch_date":"2014-11-06","launch_site_code":"DLS","launch_vehicle":null,"mission":null,"orbit_class":"UNKNOWN","rcs_meters":2.648,"size_class":null,"mass_kg":null,"dimensions":null,"purposes":["earth_obs"],"wikipedia_slug":null,"has_3d_model":false,"image_url":null,"decayed_at":null,"tle_current":{"epoch":"2026-05-25T04:15:32.264928Z","epoch_age_seconds":56896,"freshness":"FRESH","line1":"1 40298U 14070A   26145.17745677  .00004775  00000+0  22668-3 0  9996","line2":"2 40298  97.3451 221.9097 0003141 200.1106 160.0006 15.19707313640519","mean_motion":15.19707313,"eccentricity":0.0003141,"inclination_deg":97.3451,"raan_deg":221.9097,"arg_perigee_deg":200.1106,"mean_anomaly_deg":160.0006,"bstar":0.00022668,"rev_number":64051,"period_min":94.755087883163,"perigee_km":504.56192705631,"apogee_km":508.88699702676,"semimajor_km":6884.8614620415,"source":"CELESTRAK","updated_at":"2026-05-25T13:38:12.786846Z"}}}